Shepherd Bay, Nunavut

6:51 AM CDT on September 24, 2017 (GMT -0500)
Shepherd Bay

Weather History for CYUS - December, 2012

Change the Weather History Date:

Monday, December 31, 2012

  Actual Average Record
Temperature  
Mean Temperature -18 °F -  
Max Temperature -9 °F - - ()
Min Temperature -29 °F -41 °F - ()
Degree Days  
Heating Degree Days 84    
Moisture  
Dew Point -    
Average Humidity    
Maximum Humidity    
Minimum Humidity    
Precipitation  
Precipitation 0.00 in 0.01 in - ()
Sea Level Pressure  
Sea Level Pressure 29.95 in    
Wind  
Wind Speed 5 mph ()    
Max Wind Speed 12 mph    
Max Gust Speed -    
Visibility 6.1 miles    
Events      
T = Trace of Precipitation, MM = Missing Value Source: Averaged Metar Reports

Daily Weather History Graph

Daily Weather History Graph

Search for Another Location

Airport or City:

Trip Planner

Search our weather history database for the weather conditions in past years. The results will help you decide how hot, cold, wet, or windy it might be!

Date:

Astronomy

Dec. 31, 2012 Rise Set
Actual Time 11:44 AM CST 12:49 PM CST
Civil Twilight 9:43 AM CST 2:51 PM CST
Nautical Twilight 8:09 AM CST 4:24 PM CST
Astronomical Twilight 6:55 AM CST 5:38 PM CST
Moon 7:17 PM CST (12/31) 10:40 AM CST (12/31)
Length of Visible Light 5h 08m
Length of Day
1h 04m
Waning Gibbous, 90% of the Moon is Illuminated
Dec 31
Waning Gibbous
Jan 4
Last Quarter
Jan 11
New
Jan 18
First Quarter
Jan 26
Full

Hourly Weather History & Observations

Time (CST) Temp. Windchill Dew Point Humidity Pressure Visibility Wind Dir Wind Speed Gust Speed Precip Events Conditions
12:00 AM -10 °F - - % 29.94 in 9 mi East 3.5 mph - -  
12:00 AM -11.2 °F -20.6 °F - N/A% 29.94 in 9.0 mi East 3.5 mph - N/A   Unknown
1:00 AM -9.4 °F -25.6 °F - N/A% 29.94 in 5.0 mi ESE 8.1 mph - N/A   Unknown
3:00 AM -10 °F - - % 29.94 in 9 mi ESE 6.9 mph - -  
3:00 AM -9.4 °F -24.3 °F - N/A% 29.94 in 9.0 mi ESE 6.9 mph - N/A   Unknown
3:08 AM -9.4 °F -24.3 °F - N/A% 29.92 in 9.0 mi ESE 6.9 mph - N/A   Unknown
3:25 AM -11.2 °F -26.4 °F - N/A% 29.92 in 9.0 mi ESE 6.9 mph - N/A   Unknown
4:00 AM -11.2 °F -24.8 °F - N/A% 29.94 in 5.0 mi ESE 5.8 mph - N/A   Unknown
4:43 AM -11.2 °F -24.8 °F - N/A% 29.91 in 6.0 mi ESE 5.8 mph - N/A   Unknown
4:44 AM -11.2 °F -24.8 °F - N/A% 29.91 in 5.0 mi ESE 5.8 mph - N/A   Unknown
5:00 AM -9.4 °F -22.7 °F - N/A% 29.94 in 3.0 mi SE 5.8 mph - N/A   Unknown
5:44 AM -11.2 °F - - N/A% 29.92 in 3.0 mi Calm Calm - N/A   Unknown
5:56 AM -9.4 °F -18.6 °F - N/A% 29.92 in 3.0 mi SE 3.5 mph - N/A   Unknown
6:00 AM -11 °F - - % 29.95 in 3 mi SE 2.3 mph - -  
6:08 AM -9.4 °F - - N/A% 29.92 in 4.0 mi SE 2.3 mph - N/A   Unknown
7:00 AM -9.4 °F - - N/A% 29.94 in 4.0 mi SSE 2.3 mph - N/A   Unknown
7:15 AM -11.2 °F -20.6 °F - N/A% 29.92 in 3.0 mi SE 3.5 mph - N/A   Unknown
7:29 AM -11.2 °F - - N/A% 29.92 in 4.0 mi SSE 2.3 mph - N/A   Unknown
7:32 AM -9.4 °F -18.6 °F - N/A% 29.92 in 4.0 mi South 3.5 mph - N/A   Unknown
7:36 AM -9.4 °F - - N/A% 29.92 in 4.0 mi SSE 2.3 mph - N/A   Unknown
7:44 AM -11.2 °F - - N/A% 29.92 in 4.0 mi SSE 2.3 mph - N/A   Unknown
8:00 AM -11.2 °F - - N/A% 29.95 in 5.0 mi SSE 2.3 mph - N/A   Unknown
8:20 AM -11.2 °F - - N/A% 29.92 in 8.0 mi ESE 2.3 mph - N/A   Unknown
9:00 AM -12 °F - - % 29.95 in 7 mi ESE 2.3 mph - -  
9:00 AM -13.0 °F -22.7 °F - N/A% 29.95 in 8.0 mi East 3.5 mph - N/A   Unknown
10:00 AM -18.4 °F -36.6 °F - N/A% 29.95 in 9.0 mi ESE 8.1 mph - N/A   Unknown
10:20 AM -18.4 °F -35.1 °F - N/A% 29.93 in 2.8 mi SE 6.9 mph - N/A   Unknown
10:42 AM -18.4 °F -36.6 °F - N/A% 29.93 in 4.0 mi SE 8.1 mph - N/A   Unknown
11:00 AM -18.4 °F -35.1 °F - N/A% 29.95 in 5.0 mi SE 6.9 mph - N/A   Unknown
12:00 PM -18 °F - - % 29.96 in 5 mi SE 4.6 mph - -  
12:00 PM -18.4 °F -31.4 °F - N/A% 29.96 in 5.0 mi SE 4.6 mph - N/A   Unknown
12:49 PM -16.6 °F -31.3 °F - N/A% 29.94 in 3.0 mi ESE 5.8 mph - N/A   Unknown
1:00 PM -16.6 °F -31.3 °F - N/A% 29.97 in 2.5 mi East 5.8 mph - N/A   Unknown
1:17 PM -18.4 °F -31.4 °F - N/A% 29.94 in 6.0 mi ESE 4.6 mph - N/A   Unknown
2:00 PM -18.4 °F -33.4 °F - N/A% 29.98 in 3.5 mi SE 5.8 mph - N/A   Unknown
3:00 PM -19 °F - - % 29.96 in 9 mi ESE 8.1 mph - -  
3:00 PM -20.2 °F -38.8 °F - N/A% 29.96 in 9.0 mi ESE 8.1 mph - N/A   Unknown
4:00 PM -20.2 °F -38.8 °F - N/A% 29.97 in 9.0 mi ESE 8.1 mph - N/A   Unknown
5:00 PM -20.2 °F -37.3 °F - N/A% 29.98 in 9.0 mi ESE 6.9 mph - N/A   Unknown
5:26 PM -22.0 °F -41.0 °F - N/A% 29.95 in 2.6 mi ESE 8.1 mph - N/A   Unknown
5:28 PM -22.0 °F -41.0 °F - N/A% 29.95 in 2.5 mi ESE 8.1 mph - N/A   Unknown
5:33 PM -22.0 °F -41.0 °F - N/A% 29.95 in 3.0 mi ESE 8.1 mph - N/A   Unknown
5:40 PM -22.0 °F -42.3 °F - N/A% 29.95 in 9.0 mi ESE 9.2 mph - N/A   Unknown
6:00 PM -23 °F - - % 29.99 in 9 mi ESE 9.2 mph - -  
6:00 PM -22.0 °F -41.0 °F - N/A% 29.99 in 9.0 mi ESE 8.1 mph - N/A   Unknown
7:00 PM -27.4 °F -49.0 °F - N/A% 29.99 in 9.0 mi SE 9.2 mph - N/A   Unknown
7:42 PM -25.6 °F -45.4 °F - N/A% 29.96 in 3.0 mi ESE 8.1 mph - N/A   Unknown
7:57 PM -27.4 °F -49.0 °F - N/A% 29.96 in 6.0 mi ESE 9.2 mph - N/A   Unknown
8:00 PM -27.4 °F -49.0 °F - N/A% 29.99 in 8.0 mi ESE 9.2 mph - N/A   Unknown
9:00 PM -28 °F - - % 29.99 in 9 mi ESE 11.5 mph - -  
9:00 PM -27.4 °F -51.4 °F - N/A% 29.99 in 9.0 mi ESE 11.5 mph - N/A   Unknown
10:00 PM -27.4 °F -51.4 °F - N/A% 29.99 in 9.0 mi SE 11.5 mph - N/A   Unknown
11:00 PM -29.2 °F -51.2 °F - N/A% 29.99 in 9.0 mi SE 9.2 mph - N/A   Unknown